Location: *
(31.2983°S, 151.4094°E)
Time: 02:09:17
(UTC+00:00)

ISS - Visible Passes

Search period start: 19 September 2020 00:00
Search period end: 29 September 2020 00:00
Orbit: 419 x 420 km, 51.6° (Epoch: 19 September)

Date Brightness Start Highest point End Pass type
(mag) Time Alt. Az. Time Alt. Az. Time Alt. Az.
20 Sep -1.7 18:44:26 10° N 18:47:18 26° NE 18:50:13 10° ESE visible
21 Sep -0.9 17:58:33 11° NNE 18:00:04 14° NE 18:01:56 10° E visible
22 Sep -3.8 18:46:46 18° NW 18:49:08 75° SW 18:52:35 10° SE visible
23 Sep -3.2 18:01:48 53° NE 18:01:48 53° NE 18:05:07 10° SE visible
24 Sep -0.5 17:16:40 14° ESE 17:16:40 14° ESE 17:17:21 10° ESE visible
24 Sep -2.2 18:49:39 17° WSW 18:51:13 22° SW 18:53:59 10° SSE visible
25 Sep -2.6 18:04:22 33° S 18:04:22 33° S 18:06:53 10° SSE visible
26 Sep -0.7 17:18:59 14° SE 17:18:59 14° SE 17:19:36 10° SE visible
27 Sep -1.3 18:06:28 13° SSW 18:06:28 13° SSW 18:07:44 10° S visible
28 Sep -0.5 17:20:54 10° SSE 17:20:54 10° SSE 17:20:55 10° SSE visible
